CZ-6A DEB

Satellite information

Favourite Embed

Satellite Type and Status

DEBRISIN ORBIT

Key statistics

Satellite CZ-6A DEB at a glance.

Uptime

333

Days in orbit

Revolutions

≈ 14.4

Per day

Orbit

LEO

Low Earth Orbit

Inclination

89.0

Latest

Satellite identification and parameters

Extended collection of information and parameters for CZ-6A DEB.

Object identification

Identified? True

Debris? True

Object name: CZ-6A DEB

International designator: 2024-140RD

Object number (NORAD): 61159

Object ID (CCSDS): 61159

Country: PEOPLES REPUBLIC OF CHINA (PRC)

Current information (Y/N): Y

RCS size: SMALL

Orbital parameters

Period: 99.798 minutes

Inclination: 88.9706 deg

SMA: 7127.03 km

Apoapsis: 790.42 km

Periapsis: 707.37 km

RAAN: 311.1772 deg

Eccentricy: 0.0058264

Argument of periapsis: 37.5833 deg

Mean anomaly: 322.942 deg

Mean motion: 14.42912022 rev/day

Mean motion (dot): 0.00001193 rev/day2

B* drag term: 0.00034524 1/REarth

Two-line elements (TLE)

Creation date: July 4, 2025, 6:39 p.m.

Reference frame: TEME

Reference center: EARTH

Epoch: July 4, 2025, 8:33 a.m. UTC

TLE line 0: 0 CZ-6A DEB

TLE line 1: 1 61159U 24140RD 25185.35659158 .00001193 00000-0 34524-3 0 9991

TLE line 2: 2 61159 88.9706 311.1772 0058264 37.5833 322.9420 14.42912022 45624

Live tracking on map

Real-time ground track for satellite CZ-6A DEB.

In-orbit conjunctions

A list of the most updated potential collisions computed for object CZ-6A DEB.

Target Orbit TCA Probability of collision Miss distance Type
OSCAR 17 (DOVE) SSO 2025-06-28 12:22:35 0.0006249437 473.0 (m) PAYLOAD
CZ-6A DEB SSO 2025-04-22 18:36:57 0.0001388268 162.0 (m) DEBRIS
COSMOS 1867 COOLANT LEO 2025-04-16 19:20:00 0.0003015094 116.0 (m) DEBRIS
FENGYUN 1C DEB SSO 2025-02-03 21:59:31 0.0002016304 348.0 (m) DEBRIS
NOAA 16 DEB SSO 2025-01-23 23:59:29 0.000100909 961.0 (m) DEBRIS

Associated space launch

18 Low Earth Orbit communication satellites with Ku, Q and V band payloads for the G60 constellation operated by Shanghai Spacecom Satellite Technology (SSST) with funding backed by the Shanghai local government. Initial constellation will consist of 1296 satellites by 2027 with long term plans to expand it to 12000 satellites.

CZ-6A DEB was lifted into orbit during the mission ‘Long March 6A | G60 Polar Group 01’, on board a Long March 6A space rocket.

The launch took place on Aug. 6, 2024, 6:42 a.m. from Launch Complex 9A.

For more information about the launch, click the button.

Launch to space Long March 6A | G60 Polar Group 01
Long March 6A | G60 Polar Group 01

Agency: N/A

Status: Launch Successful

Launch date: Aug. 6, 2024, 6:42 a.m. UTC

Rocket: Long March 6A

Launch pad: Launch Complex 9A

Location: Taiyuan Satellite Launch Center, People's Republic of China

...

Latest news about this satellite

News about space launch
Brightness of first Chinese broadband constellation satellites alarms astronomers

The first satellites of a Chinese broadband constellation are significantly brighter than those of Western systems, posing a new challenge for astronomers.

News about space launch
Chinese rocket stage breaks up into cloud of more than 700 pieces of space debris

HELSINKI — A Chinese Long March 6A rocket’s upper stage has fragmented into a cloud of over 700 pieces of space debris, adding to concerns about long-term orbital safety. China […]

News about space launch
China's Thousand Sails Megaconstellation Kicks Off with Dangerous Debris Field

China's Thousand Sails Megaconstellation Kicks Off with Dangerous Debris Field


Newsletter sign-up

Weekly statistics, charts and insights to help you stay on top of the space industry.